Location: ??????????
(48.4699°N, 37.9573°E)
Time: 12:37:22
(UTC+00:00)

NOSS 3-1 (C) - Pass Details

Date: 20 January 2021
Orbit: 723 x 1485 km, 63.3° (Epoch: 22 February)

Event Time Altitude Azimuth Distance (km) Brightness Sun altitude
Rises 15:44:55 0° 316° (NW) 3,801 7.0 -15.7°
Reaches altitude 10° 15:47:28 10° 322° (NW) 2,952 6.3 -16.1°
Maximum altitude 15:54:26 51° 38° (NE) 1,533 4.2 -17.3°
Enters shadow 15:59:45 22° 104° (ESE) 2,567 5.1 -18.1°
